Location: Arcueil
(48.7999°N, 2.3326°E)
Time: 11:49:36
(UTC+00:00)

Cosmos 1844 Rocket - Pass Details

Date: 03 February 2023
Orbit: 826 x 843 km, 71.0° (Epoch: 22 March)

Event Time Altitude Azimuth Distance (km) Brightness Sun altitude
Rises 17:39:38 0° 333° (NNW) 3,378 6.0 -8.3°
Reaches altitude 10° 17:42:08 10° 339° (NNW) 2,439 5.2 -8.7°
Maximum altitude 17:47:36 53° 56° (NE) 1,006 2.8 -9.6°
Drops below altitude 10° 17:53:02 10° 133° (SE) 2,425 4.8 -10.5°
Sets 17:55:31 0° 138° (SE) 3,355 5.5 -10.8°
